CW9451 Weather Reports


Display with metric or nautical units.
time (UTC)temp
F
wind
direction
speed
MPH
gust
MPH
rain 1hr
in
rain 24hr
in
rain mn
in
humidity
%
barometer
mb
20260510175904 70 0.0 0.0 0.00 0.00 0.00 76 1008.2
20260510174905 71 0.0 0.0 0.00 0.00 0.00 75 1008.5
20260510173904 70 0.0 0.0 0.00 0.00 0.00 76 1008.5
20260510172904 70 0.0 0.0 0.00 0.00 0.00 77 1008.5
20260510171909 70 0.0 0.0 0.00 0.00 0.00 75 1008.4
20260510164904 70 0.0 0.0 0.00 0.00 0.00 74 1008.7
20260510163905 70 0.0 0.0 0.00 0.00 0.00 71 1008.6
20260510162904 71 0.0 0.0 0.00 0.00 0.00 69 1008.6
20260510161904 71 0.0 0.0 0.00 0.00 0.00 67 1008.5
20260510160909 72 0.0 0.0 0.00 0.00 0.00 66 1008.7
20260510154904 72 0.0 0.0 0.00 0.00 0.00 66 1008.8
20260510153905 73 0.0 0.0 0.00 0.00 0.00 65 1008.9
20260510152905 73 0.0 0.0 0.00 0.00 0.00 63 1008.9
20260510151904 75 0.0 0.0 0.00 0.00 0.00 60 1009.0
20260510150905 74 0.0 0.0 0.00 0.00 0.00 59 1009.1
20260510145904 75 0.0 0.0 0.00 0.00 0.00 58 1009.1
20260510144904 75 0.0 0.0 0.00 0.00 0.00 59 1009.2
20260510143903 75 0.0 0.0 0.00 0.00 0.00 59 1009.4
20260510142904 77 0.0 0.0 0.00 0.00 0.00 58 1009.5
20260510141904 78 0.0 0.0 0.00 0.00 0.00 57 1009.8
20260510140909 78 0.0 0.0 0.00 0.00 0.00 57 1010.0
20260510134903 76 0.0 0.0 0.00 0.00 0.00 57 1010.3
20260510133903 76 0.0 0.0 0.00 0.00 0.00 59 1010.5
20260510132904 76 0.0 0.0 0.00 0.00 0.00 60 1010.7
20260510131904 75 0.0 0.0 0.00 0.00 0.00 60 1010.8
20260510130909 74 0.0 0.0 0.00 0.00 0.00 60 1010.8
20260510124904 75 0.0 0.0 0.00 0.00 0.00 62 1011.1
20260510123904 75 0.0 0.0 0.00 0.00 0.00 62 1011.3
20260510122909 74 0.0 0.0 0.00 0.00 0.00 62 1011.4
20260510120905 73 0.0 0.0 0.00 0.00 0.00 64 1011.5
20260510115909 73 0.0 0.0 0.00 0.00 0.00 64 1011.9
20260510113904 73 0.0 0.0 0.00 0.00 0.00 66 1012.1
20260510112905 73 0.0 0.0 0.00 0.00 0.00 66 1012.4
20260510111904 73 0.0 0.0 0.00 0.00 0.00 69 1012.7
20260510110904 72 0.0 0.0 0.00 0.00 0.00 71 1012.9
20260510105905 71 0.0 0.0 0.00 0.00 0.00 68 1012.8
20260510104905 71 0.0 0.0 0.00 0.00 0.00 68 1012.9
20260510103924 70 0.0 0.0 0.00 0.00 0.00 70 1013.1
20260510101905 70 0.0 0.0 0.00 0.00 0.00 74 1013.7
20260510100904 69 0.0 0.0 0.00 0.00 0.00 74 1013.7
20260510095905 69 0.0 0.0 0.00 0.00 0.00 75 1013.9
20260510094909 68 0.0 0.0 0.00 0.00 0.00 77 1014.0
20260510091904 66 0.0 0.0 0.00 0.00 0.00 80 1014.4
20260510090905 65 0.0 0.0 0.00 0.00 0.00 82 1014.7
20260510085904 65 0.0 0.0 0.00 0.00 0.00 82 1014.7
20260510084909 64 0.0 0.0 0.00 0.00 0.00 83 1014.9
20260510082904 63 0.0 0.0 0.00 0.00 0.00 85 1015.1
20260510081908 62 0.0 0.0 0.00 0.00 0.00 85 1015.1
20260510074903 60 0.0 0.0 0.00 0.00 0.00 86 1015.6
20260510073904 59 0.0 0.0 0.00 0.00 0.00 86 1015.7
20260510072905 58 0.0 0.0 0.00 0.00 0.00 87 1015.8
20260510071909 57 0.0 0.0 0.00 0.00 0.00 87 1015.8
20260510065904 57 0.0 0.0 0.00 0.00 0.00 87 1016.1
20260510064903 56 0.0 0.0 0.00 0.00 0.00 87 1015.9
20260510063904 56 0.0 0.0 0.00 0.00 0.00 89 1016.1
20260510062905 55 0.0 0.0 0.00 0.00 0.00 90 1015.9
20260510061904 55 0.0 0.0 0.00 0.00 0.00 90 1016.0
20260510060905 55 0.0 0.0 0.00 0.00 0.00 90 1016.1
20260510055904 55 0.0 0.0 0.00 0.00 0.00 90 1016.2
20260510054905 54 0.0 0.0 0.00 0.00 0.00 90 1016.4
20260510053909 53 0.0 0.0 0.00 0.00 0.00 90 1016.3
20260510051909 53 0.0 0.0 0.00 0.00 0.00 90 1016.3
20260510045909 52 0.0 0.0 0.00 0.00 0.00 89 1016.2
20260510043909 52 0.0 0.0 0.00 0.00 0.00 88 1016.2
20260510041904 52 0.0 0.0 0.00 0.00 0.00 89 1016.2
20260510040905 52 0.0 0.0 0.00 0.00 0.00 88 1016.1
20260510035909 52 0.0 0.0 0.00 0.00 0.00 89 1016.2
20260510033909 52 0.0 0.0 0.00 0.00 0.00 89 1016.4
20260510030904 52 0.0 0.0 0.00 0.00 0.00 89 1016.4
20260510025903 52 0.0 0.0 0.00 0.00 0.00 89 1016.2
20260510024908 52 0.0 0.0 0.00 0.00 0.00 89 1016.4
20260510021904 52 0.0 0.0 0.00 0.00 0.00 87 1016.4
20260510020909 53 0.0 0.0 0.00 0.00 0.00 87 1016.6
20260510013904 53 0.0 0.0 0.00 0.00 0.00 87 1016.9
20260510012909 53 0.0 0.0 0.00 0.00 0.00 87 1017.0
20260510005903 54 0.0 0.0 0.00 0.00 0.00 87 1016.8
20260510004904 54 0.0 0.0 0.00 0.00 0.00 87 1016.9
20260510003905 54 0.0 0.0 0.00 0.00 0.00 86 1016.9
20260510002905 54 0.0 0.0 0.00 0.00 0.00 86 1017.2
20260510001904 54 0.0 0.0 0.00 0.00 0.00 86 1017.4
20260510000904 55 0.0 0.0 0.00 0.00 0.00 86 1017.5
20260509235904 55 0.0 0.0 0.00 0.00 0.00 85 1017.6
20260509234905 55 0.0 0.0 0.00 0.00 0.00 85 1017.6
20260509233909 55 0.0 0.0 0.00 0.00 0.00 85 1017.9
20260509231904 55 0.0 0.0 0.00 0.00 0.00 85 1017.9
20260509230904 55 0.0 0.0 0.00 0.00 0.00 85 1018.0
20260509225904 56 0.0 0.0 0.00 0.00 0.00 85 1018.1
20260509224903 56 0.0 0.0 0.00 0.00 0.00 85 1018.2
20260509223903 56 0.0 0.0 0.00 0.00 0.00 85 1018.2
20260509222904 56 0.0 0.0 0.00 0.00 0.00 84 1018.2
20260509221909 56 0.0 0.0 0.00 0.00 0.00 83 1018.3
20260509215904 57 0.0 0.0 0.00 0.00 0.00 82 1018.4
20260509214905 57 0.0 0.0 0.00 0.00 0.00 82 1018.5
20260509213905 57 0.0 0.0 0.00 0.00 0.00 81 1018.5
20260509212904 58 0.0 0.0 0.00 0.00 0.00 82 1018.5
20260509211909 58 0.0 0.0 0.00 0.00 0.00 81 1018.4
20260509205904 59 0.0 0.0 0.00 0.00 0.00 80 1018.3
20260509204904 59 0.0 0.0 0.00 0.00 0.00 80 1018.5
20260509203904 59 0.0 0.0 0.00 0.00 0.00 80 1018.6
20260509202904 59 0.0 0.0 0.00 0.00 0.00 80 1018.7
20260509201904 59 0.0 0.0 0.00 0.00 0.00 81 1018.8
20260509200904 59 0.0 0.0 0.00 0.00 0.00 80 1018.6
20260509195904 60 0.0 0.0 0.00 0.00 0.00 80 1018.5
20260509194904 60 0.0 0.0 0.00 0.00 0.00 79 1018.3
20260509193904 60 0.0 0.0 0.00 0.00 0.00 80 1018.4
20260509192909 60 0.0 0.0 0.00 0.00 0.00 79 1018.2
20260509190909 61 0.0 0.0 0.00 0.00 0.00 79 1018.1
20260509184904 63 0.0 0.0 0.00 0.00 0.00 76 1017.7
20260509183905 63 0.0 0.0 0.00 0.00 0.00 76 1017.6
20260509182905 64 0.0 0.0 0.00 0.00 0.00 73 1017.4
20260509181904 65 0.0 0.0 0.00 0.00 0.00 72 1017.3
20260509180904 66 0.0 0.0 0.00 0.00 0.00 70 1017.3